Location: Axtheid
(49.6213°N, 11.8205°E)
Time: 06:49:07
(UTC+00:00)

USA 281 - Visible Passes

Search period start: 11 May 2021 00:00
Search period end: 21 May 2021 00:00
Orbit: 1078 x 1081 km, 106.0° (Epoch: 07 May)

Date Brightness Start Highest point End Pass type
(mag) Time Alt. Az. Time Alt. Az. Time Alt. Az.
11 May 3.1 00:27:57 26° SSE 00:31:57 76° WSW 00:38:34 10° NNW visible
11 May 4.7 02:14:49 13° WSW 02:17:28 16° W 02:21:23 10° WNW visible
11 May 5.4 21:54:55 10° ENE 21:59:08 18° NNE 22:03:20 10° N visible
11 May 3.7 23:36:59 15° SE 23:42:26 56° NE 23:48:51 10° NNW visible
12 May 3.8 01:23:50 23° SSW 01:27:10 36° WSW 01:33:10 10° NW visible
12 May 5.7 21:08:28 10° NE 21:10:36 12° NNE 21:12:44 10° N visible
12 May 4.8 22:47:41 10° ESE 22:53:16 31° NE 22:58:51 10° NNW visible
13 May 3.1 00:32:52 23° SSE 00:37:17 76° WSW 00:43:53 10° NNW visible
13 May 4.7 02:19:42 12° SW 02:22:47 16° W 02:26:40 10° WNW visible
13 May 5.5 22:00:13 10° ENE 22:04:26 18° NE 22:08:39 10° N visible
13 May 3.8 23:41:53 12° SE 23:47:45 57° NE 23:54:09 10° NNW visible
14 May 3.8 01:28:44 20° SSW 01:32:29 36° WSW 01:38:29 10° NW visible
14 May 5.7 21:13:45 10° NE 21:15:54 12° NNE 21:18:04 10° N visible
14 May 4.8 22:52:59 10° ESE 22:58:34 31° NE 23:04:10 10° NNW visible
15 May 3.1 00:37:45 20° SSE 00:42:36 75° WSW 00:49:12 10° NNW visible
15 May 4.7 02:24:35 11° SW 02:28:06 16° W 02:31:57 10° WNW visible
15 May 5.5 22:05:30 10° ENE 22:09:44 18° NE 22:13:59 10° N visible
15 May 3.8 23:46:45 10° SE 23:53:03 57° NE 23:59:29 10° NNW visible
16 May 3.8 01:33:36 18° SSW 01:37:49 36° WSW 01:43:47 10° NW visible
16 May 5.8 21:19:01 10° NE 21:21:12 12° NNE 21:23:23 10° N visible
16 May 4.8 22:58:17 10° ESE 23:03:53 31° NE 23:09:29 10° NNW visible
17 May 3.1 00:42:37 17° SSE 00:47:54 75° WSW 00:54:31 10° NNW visible
17 May 4.7 02:29:39 10° SW 02:33:26 16° W 02:37:14 10° WNW visible
17 May 5.5 22:10:47 10° ENE 22:15:02 19° NE 22:19:18 10° N visible
17 May 3.8 23:51:59 10° SE 23:58:22 57° NE 00:04:47 10° NNW visible
18 May 3.8 01:38:27 16° SSW 01:43:08 35° WSW 01:49:07 10° NW visible
18 May 5.8 21:24:17 10° NE 21:26:30 12° NNE 21:28:43 10° N visible
18 May 4.8 23:03:34 10° ESE 23:09:11 31° NE 23:14:49 10° NNW visible
19 May 3.2 00:47:27 14° SSE 00:53:13 74° WSW 00:59:50 10° NNW visible
19 May 4.7 02:35:00 10° SW 02:38:45 16° W 02:42:31 10° WNW visible
19 May 5.5 22:16:05 10° ENE 22:20:20 19° NE 22:24:37 10° N visible
19 May 3.8 23:57:17 10° SE 00:03:41 58° NE 00:10:06 10° NNW visible
20 May 3.8 01:43:18 13° SSW 01:48:26 35° WSW 01:54:25 10° NW visible
20 May 5.8 21:29:35 10° NE 21:31:48 12° NNE 21:34:03 10° N visible
20 May 4.8 23:08:52 10° ESE 23:14:30 31° NE 23:20:08 10° NNW visible
